Home   Weather   Prescott   Past weeks
Flag for USA

Past Weather in Prescott, Arizona, USA — Yesterday and Last 2 Weeks

Now
62 °F

Sunny.


Feels Like: 62 °F
Forecast: 74 / 42 °F
Wind: No wind

Location: Love Field

Current Time: Oct 15, 2019 at 10:25:39 am

Latest Report: Oct 15, 2019 at 9:53 am


Visibility: 10 mi

Pressure: 30.08 "Hg (24.81 "Hg at 1635m altitude)

Humidity: 41%

Dew Point: 38 °F

Location of PrescottLocation

Past Weather in Prescott — Graph

°F

Prescott Temperature Yesterday

Maximum temperature yesterday: 71 °F (at 2:53 pm)
Minimum temperature yesterday: 44 °F (at 4:53 am)
Average temperature yesterday: 57 °F

High & Low Weather Summary for the Past Weeks

 TemperatureHumidityPressure
High82 °F (Oct 6, 3:53 pm)82% (Oct 15, 6:53 am)30.16 "Hg (Oct 15, 6:53 am)
Low31 °F (Oct 11, 6:53 am)2% (Oct 10, 4:53 pm)29.68 "Hg (Oct 9, 4:53 pm)
Average58 °F33%29.92 "Hg
* Reported Sep 30 8:53 am — Oct 15 8:53 am, Prescott. Weather by CustomWeather, © 2019

Note: Actual official high and low records may vary slightly from our data, if they occured in-between our weather recording intervals... More about our weather records

Advertising

Prescott Weather History for the Previous 24 Hours

Scroll right to see more
 ConditionsComfort  
Time TempWeatherWind HumidityBarometerVisibility
8:53 am
Tue, Oct 15
57 °FSunny.No wind51%30.09 "Hg10 mi
7:53 am50 °FSunny.3 mph68%30.08 "Hg10 mi
6:53 am41 °FSunny.No wind82%30.08 "Hg10 mi
5:53 am43 °FClear.No wind79%30.04 "Hg10 mi
4:53 am45 °FClear.5 mph74%30.01 "Hg10 mi
3:53 am46 °FClear.6 mph73%29.99 "Hg10 mi
2:53 am45 °FClear.No wind76%29.98 "Hg10 mi
1:53 am46 °FClear.8 mph73%29.98 "Hg10 mi
12:53 am48 °FClear.3 mph68%29.97 "Hg10 mi
11:53 pm
Mon, Oct 14
48 °FClear.3 mph71%29.96 "Hg10 mi
10:53 pm50 °FClear.3 mph66%29.96 "Hg10 mi
9:53 pm51 °FClear.No wind61%29.96 "Hg10 mi
8:53 pm54 °FClear.5 mph57%29.95 "Hg10 mi
7:53 pm58 °FClear.7 mph47%29.93 "Hg10 mi
6:53 pm60 °FClear.5 mph44%29.93 "Hg10 mi
5:53 pm65 °FSunny.6 mph34%29.90 "Hg10 mi
4:53 pm69 °FSunny.8 mph30%29.88 "Hg10 mi
3:53 pm69 °FSunny.10 mph24%29.87 "Hg10 mi
2:53 pm71 °FSunny.14 mph25%29.86 "Hg10 mi
1:53 pm70 °FScattered clouds.14 mph28%29.87 "Hg10 mi
12:53 pm70 °FScattered clouds.8 mph29%29.88 "Hg10 mi
11:53 am69 °FScattered clouds.14 mph32%29.90 "Hg10 mi
10:53 am68 °FPassing clouds.10 mph35%29.91 "Hg10 mi
Weather by CustomWeather, © 2019

See weather overview